Location: Lane
(33.5226°N, 79.8788°W)
Time: 03:05:15
(UTC+00:00)

Explorer 7 - Pass Details

Date: 05 October 2022
Orbit: 481 x 665 km, 50.3° (Epoch: 01 December)

Event Time Altitude Azimuth Distance (km) Brightness Sun altitude
Rises 23:06:44 0° 291° (WNW) 2,846 11.8 -2.5°
Reaches altitude 10° 23:10:05 10° 266° (W) 1,893 11.7 -3.2°
Maximum altitude 23:12:15 14° 235° (SW) 1,636 10.3 -3.7°
Drops below altitude 10° 23:14:21 10° 205° (SSW) 1,827 9.9 -4.1°
Sets 23:17:29 0° 178° (S) 2,669 10.3 -4.8°
